Weather History for Kenora, ON

Change the Weather History Date:

Thursday, December 27, 2012

  Actual Average Record
Temperature  
Mean Temperature -3 °F -  
Max Temperature 7 °F 9 °F 35 °F (2003)
Min Temperature -13 °F -8 °F -20 °F (1996)
Degree Days  
Heating Degree Days 68    
Moisture  
Dew Point -3 °F    
Average Humidity 85    
Maximum Humidity 92    
Minimum Humidity 73    
Precipitation  
Precipitation 0.00 in 0.04 in - ()
Sea Level Pressure  
Sea Level Pressure 30.35 in    
Wind  
Wind Speed 4 mph ()    
Max Wind Speed 8 mph    
Max Gust Speed -    
Visibility 12.9 miles    
Events Snow    
Averages and records for this station are not official NWS values.
T = Trace of Precipitation, MM = Missing Value Source: Averaged Metar Reports

Daily Weather History Graph

Daily Weather History Graph

Search for Another Location

Airport:

Trip Planner

Search our weather history database for the weather conditions in past years. The results will help you decide how hot, cold, wet, or windy it might be!

Date:

Astronomy

Dec. 27, 2012 Rise Set
Actual Time 8:14 AM CST 4:23 PM CST
Civil Twilight 7:36 AM CST 5:01 PM CST
Nautical Twilight 6:55 AM CST 5:42 PM CST
Astronomical Twilight 6:16 AM CST 6:21 PM CST
Moon 4:10 PM CST (12/27) 7:23 AM CST (12/27)
Length of Visible Light 9h 24m
Length of Day
8h 08m
Full, 100% of the Moon is Illuminated
Dec 27
Full
Dec 28
Full
Jan 4
Last Quarter
Jan 11
New
Jan 18
First Quarter

Hourly Weather History & Observations

Time (CST) Temp. Windchill Dew Point Humidity Pressure Visibility Wind Dir Wind Speed Gust Speed Precip Events Conditions
12:00 AM -7.6 °F -18.8 °F -11.2 °F 84% 30.40 in 15.0 mi SE 4.6 mph - N/A   Scattered Clouds
1:00 AM -4.0 °F -14.6 °F -7.6 °F 85% 30.40 in 15.0 mi SSE 4.6 mph - N/A   Scattered Clouds
2:00 AM -9.4 °F - -14.8 °F 77% 30.40 in 15.0 mi SE 2.3 mph - N/A   Scattered Clouds
3:00 AM -5.8 °F -14.5 °F -11.2 °F 77% 30.40 in 15.0 mi SE 3.5 mph - N/A   Scattered Clouds
4:00 AM -9.4 °F -18.6 °F -14.8 °F 77% 30.40 in 15.0 mi SE 3.5 mph - N/A   Mostly Cloudy
5:00 AM -7.6 °F -18.8 °F -13.0 °F 77% 30.40 in 15.0 mi ESE 4.6 mph - N/A   Mostly Cloudy
6:00 AM -4 °F - -8 °F 73% 30.40 in 15 mi SE 4.6 mph - -   Mostly Cloudy
6:00 AM -4.0 °F -14.6 °F -7.6 °F 85% 30.40 in 15.0 mi ESE 4.6 mph - N/A   Mostly Cloudy
6:51 AM - - - N/A% - 15.0 mi East 5.8 mph - N/A   Unknown
7:00 AM -4.0 °F -16.3 °F -7.6 °F 85% 30.39 in 15.0 mi East 5.8 mph - N/A Snow Light Snow
8:00 AM -2.2 °F -16.8 °F -5.8 °F 85% 30.38 in 15.0 mi East 8.1 mph - N/A Snow Light Snow
9:00 AM -2.2 °F -12.5 °F -5.8 °F 85% 30.39 in 15.0 mi ESE 4.6 mph - N/A Snow Light Snow
10:00 AM -0.4 °F -13.4 °F -4.0 °F 85% 30.41 in 15.0 mi SSE 6.9 mph - N/A   Mostly Cloudy
11:00 AM 1.4 °F -9.9 °F -2.2 °F 85% 30.40 in 8.0 mi SE 5.8 mph - N/A Snow Light Snow
12:00 PM 3 °F - -0 °F 79% 30.36 in 7 mi East 3.5 mph - - Snow Light Snow
12:00 PM 3.2 °F -6.2 °F -0.4 °F 85% 30.36 in 8.0 mi East 4.6 mph - N/A Snow Light Snow
2:00 PM 6.8 °F -2.0 °F 3.2 °F 85% 30.33 in 10.0 mi South 4.6 mph - N/A Snow Light Snow
3:00 PM 6.8 °F -0.1 °F 5.0 °F 92% 30.32 in 12.0 mi SE 3.5 mph - N/A Snow Light Snow
4:00 PM 6.8 °F -0.1 °F 5.0 °F 92% 30.32 in 12.0 mi ESE 3.5 mph - N/A Snow Light Snow
5:00 PM 6.8 °F -4.8 °F 5.0 °F 92% 30.30 in 12.0 mi East 6.9 mph - N/A Snow Light Snow
6:00 PM 7 °F - 4 °F 83% 30.30 in 12 mi ESE 4.6 mph - - Snow Light Snow
6:00 PM 6.8 °F -2.0 °F 5.0 °F 92% 30.30 in 12.0 mi ESE 4.6 mph - N/A Snow Light Snow
6:50 PM - - - N/A% - 15.0 mi ESE 4.6 mph - N/A   Overcast
7:00 PM 6.8 °F -2.0 °F 3.2 °F 85% 30.30 in 15.0 mi ESE 4.6 mph - N/A   Overcast
8:00 PM 6.8 °F -3.5 °F 3.2 °F 85% 30.28 in 15.0 mi ESE 5.8 mph - N/A Snow Light Snow
9:00 PM 5.0 °F -5.6 °F 3.2 °F 92% 30.27 in 10.0 mi ESE 5.8 mph - N/A Snow Light Snow
10:00 PM 5.0 °F -4.1 °F 3.2 °F 92% 30.27 in 12.0 mi East 4.6 mph - N/A Snow Light Snow
11:00 PM 5.0 °F -4.1 °F 1.4 °F 85% 30.27 in 6.0 mi ESE 4.6 mph - N/A Snow Light Snow